CZ-4 DEB, 27676

Orbit data source: Space-Track

CZ-4 DEB, 27676 is space debris in SSO originally from a launch on Thu, 14 Oct 1999 UTC launched from the Taiyaun Space Center, China (TSC). Debris objects in space refer to the collection of defunct objects orbiting the Earth. Examples of debris include non-operational satellites, rocket bodies, and fragments generated from explosions, collisions, or faulty payload assembly.

Loading next visibility...
Identifier
27676, 1999-057MQ
Orbit
SSO
Country
Flag of CNCN / PRC
Related business
Manufacturer
Unknown
Mission
Spacecraft
Bus & Motor
Unknown
Mass
Unknown
Launch date (UTC)
1999-10-14 (27 years ago)
Launch vehicle
Unknown
Launch site
Taiyaun Space Center, China (TSC)
Object type
Payload
Rocket body
Debris
Shape & HBR
Unknown shape, 0.1 m
Radar Cross Section
Small (<0.1 m²)

Expand to show TLE details & history
Last TLE update: 2 days ago

TLE from 2 days ago
0 CZ-4 DEB
1 27676U 99057MQ  26124.61420529  .00000666  00000-0  20855-3 0  9993
2 27676  98.6522 185.9496 0099704  22.9908 337.5697 14.41198121220403
Epoch: 2026-05-04T14:44Z
TLE epoch observation values (Epoch: 2026-05-04T14:44:27.337Z)
Latitude
-0.00001°
Longitude
102.33482°
Altitude
691.844 km
Speed
7.545 km/s
True Right ascension
12h 23m 47s
True Declination
0° 00' 00"
Sunlit
Object was in full shadow at epoch
Visualization orbit readout
Latitude
Unknown
Longitude
Unknown
Altitude
Unknown
Speed
Unknown
Apparent Right ascension
Unknown
Apparent Declination
Unknown
Sunlit
N/A
Visualization observer readout
Local Sidereal Time
07:57:01
Azimuth
Unknown
Elevation
Unknown
Doppler factor
Unknown
Orbital elements
Apogee altitude
822.757 km
Perigee altitude
680.583 km
Semi-major axis
7,129.807 km
Eccentricity
0.00997
Inclination
98.6522°
RAAN
185.9496°
Arg. of periapsis
22.9908°
True anomaly
337.12869°
Mean anomaly
337.5697°
Eccentric anomaly
337.3497°
Mean motion
3.60518 °/min
Orbital period
99.86 mins
BSTAR
0.00020855
Loading maneuver chart data...
Computing Atmospheric mass density...
Loading historical data...
Loading historical data...
Loading historical data...
Loading historical data...
Loading historical data...
Loading historical data...
Loading historical data...

Documentation

Showing up to 5 results
|